| time (UTC) | temp C | wind direction | speed KPH | gust KPH | rain 1hr cm | rain 24hr cm | rain mn cm | humidity % | barometer mb |
| 20260508114412 | 14 | 34 | 4.8 | 11.3 | 0.00 | 0.00 | 0.00 | 24 | 1026.4 |
| 20260508112638 | 13 | 15 | 1.6 | 3.2 | 0.00 | 0.00 | 0.00 | 23 | 1026.4 |
| 20260508112636 | 13 | 15 | 1.6 | 3.2 | 0.00 | 0.00 | 0.00 | 23 | 1026.4 |
| 20260508112633 | 13 | 15 | 1.6 | 3.2 | 0.00 | 0.00 | 0.00 | 23 | 1026.4 |
| 20260508110718 | 13 | 339 | 1.6 | 4.8 | 0.00 | 0.00 | 0.00 | 22 | 1026.4 |
| 20260508104733 | 13 | 42 | 3.2 | 6.4 | 0.00 | 0.00 | 0.00 | 25 | 1026.3 |
| 20260508102813 | 13 | 349 | 3.2 | 8.0 | 0.00 | 0.00 | 0.00 | 25 | 1026.3 |
| 20260508101208 | 13 | 151 | 1.6 | 6.4 | 0.00 | 0.00 | 0.00 | 26 | 1026.3 |
| 20260508095343 | 13 | 13 | 4.8 | 12.9 | 0.00 | 0.00 | 0.00 | 28 | 1026.2 |
| 20260508093607 | 13 | 21 | 3.2 | 8.0 | 0.00 | 0.00 | 0.00 | 28 | 106.2 |
| 20260508093603 | 13 | 21 | 3.2 | 8.0 | 0.00 | 0.00 | 0.00 | 28 | 1026.2 |
| 20260508091901 | 12 | 346 | 3.2 | 6.4 | 0.00 | 0.00 | 0.00 | 29 | 1026.2 |
| 20260508091858 | 12 | 346 | 3.2 | 6.4 | 0.00 | 0.00 | 0.00 | 29 | 1026.2 |
| 20260508090018 | 11 | 18 | 3.2 | 9.7 | 0.00 | 0.00 | 0.00 | 32 | 1026.1 |
| 20260508084313 | 11 | 334 | 1.6 | 3.2 | 0.00 | 0.00 | 0.00 | 33 | 1026.1 |
| 20260508082340 | 10 | 7 | 3.2 | 6.4 | 0.00 | 0.00 | 0.00 | 34 | 1025.9 |
| 20260508080613 | 10 | 4 | 6.4 | 16.1 | 0.00 | 0.00 | 0.00 | 35 | 1026.0 |
| 20260508074618 | 10 | 26 | 6.4 | 14.5 | 0.00 | 0.00 | 0.00 | 36 | 1025.8 |
| 20260508072742 | 10 | 346 | 4.8 | 8.0 | 0.00 | 0.00 | 0.00 | 36 | 1025.8 |
| 20260508070753 | 10 | 5 | 4.8 | 8.0 | 0.00 | 0.00 | 0.00 | 40 | 1025.7 |
| 20260508064837 | 9 | 0 | 0.0 | 0.0 | 0.00 | 0.00 | 0.00 | 41 | 1025.5 |
| 20260508064833 | 9 | 0 | 6.4 | 12.9 | 0.00 | 0.00 | 0.00 | 41 | 1025.5 |
| 20260508062918 | 8 | 6 | 3.2 | 9.7 | 0.00 | 0.00 | 0.00 | 45 | 1025.3 |
| 20260508060928 | 8 | 340 | 3.2 | 8.0 | 0.00 | 0.00 | 0.00 | 47 | 1025.2 |
| 20260508055256 | 8 | 21 | 3.2 | 8.0 | 0.00 | 0.00 | 0.00 | 47 | 1025.1 |
| 20260508055253 | 8 | 21 | 3.2 | 8.0 | 0.00 | 0.00 | 0.00 | 47 | 1025.1 |
| 20260508053603 | 7 | 325 | 1.6 | 8.0 | 0.00 | 0.00 | 0.00 | 49 | 1025.0 |
| 20260508051718 | 7 | 36 | 4.8 | 12.9 | 0.00 | 0.00 | 0.00 | 50 | 1024.8 |
| 20260508050043 | 5 | 356 | 1.6 | 6.4 | 0.00 | 0.00 | 0.00 | 58 | 1024.1 |
| 20260508044238 | 4 | 331 | 3.2 | 6.4 | 0.00 | 0.00 | 0.00 | 60 | 1023.9 |
| 20260508042338 | 3 | 308 | 0.0 | 3.2 | 0.00 | 0.00 | 0.00 | 59 | 1023.8 |
| 20260508040453 | 3 | 3 | 1.6 | 4.8 | 0.00 | 0.00 | 0.00 | 60 | 1023.7 |
| 20260508034618 | 3 | 7 | 1.6 | 4.8 | 0.00 | 0.00 | 0.00 | 61 | 1023.7 |
| 20260508033018 | 3 | 5 | 1.6 | 3.2 | 0.00 | 0.00 | 0.00 | 61 | 1023.5 |
| 20260508031036 | 3 | 352 | 3.2 | 6.4 | 0.00 | 0.00 | 0.00 | 59 | 102.3 |
| 20260508031033 | 3 | 352 | 3.2 | 6.4 | 0.00 | 0.00 | 0.00 | 59 | 1023.3 |
| 20260508025330 | 3 | 335 | 1.6 | 3.2 | 0.00 | 0.00 | 0.00 | 59 | 1023.0 |
| 20260508023337 | 3 | 340 | 1.6 | 3.2 | 0.00 | 0.00 | 0.00 | 59 | 1022.8 |
| 20260508021733 | 4 | 338 | 1.6 | 6.4 | 0.00 | 0.00 | 0.00 | 58 | 1022.7 |
| 20260508015903 | 4 | 348 | 3.2 | 4.8 | 0.00 | 0.00 | 0.00 | 57 | 1022.4 |
| 20260508014144 | 5 | 340 | 1.6 | 6.4 | 0.00 | 0.00 | 0.00 | 1022.3 | |
| 20260508014138 | 5 | 340 | 1.6 | 6.4 | 0.00 | 0.00 | 0.00 | 55 | 1022.3 |
| 20260508012230 | 5 | 336 | 4.8 | 8.0 | 0.00 | 0.00 | 0.00 | 54 | 1022.0 |
| 20260508010428 | 5 | 8 | 1.6 | 4.8 | 0.00 | 0.00 | 0.00 | 53 | 1022.0 |
| 20260508004828 | 5 | 340 | 3.2 | 6.4 | 0.00 | 0.00 | 0.00 | 51 | 1021.0 |
| 20260508002858 | 6 | 15 | 4.8 | 16.1 | 0.00 | 0.00 | 0.00 | 50 | 1020.8 |
| 20260508001248 | 6 | 4 | 6.4 | 12.9 | 0.00 | 0.00 | 0.00 | 50 | 1020.8 |
| 20260507235308 | 6 | 15 | 3.2 | 6.4 | 0.00 | 0.00 | 0.00 | 49 | 1020.5 |
| 20260507233700 | 6 | 347 | 3.2 | 4.8 | 0.00 | 0.00 | 0.00 | 50 | 1020.3 |
| 20260507231818 | 6 | 355 | 3.2 | 8.0 | 0.00 | 0.00 | 0.00 | 50 | 1020.1 |
| 20260507230148 | 6 | 345 | 3.2 | 6.4 | 0.00 | 0.00 | 0.00 | 48 | 1020.0 |
| 20260507224228 | 6 | 332 | 1.6 | 3.2 | 0.00 | 0.00 | 0.00 | 46 | 1019.9 |
| 20260507222403 | 7 | 332 | 1.6 | 3.2 | 0.00 | 0.00 | 0.00 | 45 | 1019.7 |
| 20260507220613 | 7 | 327 | 1.6 | 1.6 | 0.00 | 0.00 | 0.00 | 43 | 1019.6 |
| 20260507214907 | 7 | 359 | 3.2 | 4.8 | 0.00 | 0.00 | 0.00 | 43 | 1019.4 |
| 20260507213108 | 7 | 337 | 1.6 | 4.8 | 0.00 | 0.00 | 0.00 | 41 | 1019.2 |
| 20260507211248 | 7 | 347 | 3.2 | 6.4 | 0.00 | 0.00 | 0.00 | 41 | 1019.0 |
| 20260507205441 | 7 | 309 | 1.6 | 3.2 | 0.00 | 0.00 | 0.00 | 37 | 1018.2 |
| 20260507203638 | 7 | 292 | 0.0 | 1.6 | 0.00 | 0.00 | 0.00 | 47 | 1017.9 |
| 20260507201943 | 6 | 97 | 0.0 | 0.0 | 0.00 | 0.00 | 0.00 | 51 | 1017.7 |
| 20260507200103 | 7 | 194 | 1.6 | 1.6 | 0.00 | 0.00 | 0.00 | 50 | 1017.6 |
| 20260507194253 | 8 | 68 | 0.0 | 1.6 | 0.00 | 0.00 | 0.00 | 48 | 1017.5 |
| 20260507192310 | 8 | 178 | 0.0 | 3.2 | 0.00 | 0.00 | 0.00 | 1017.3 | |
| 20260507192306 | 8 | 178 | 0.0 | 3.2 | 0.00 | 0.00 | 0.00 | 45 | 1017.3 |
| 20260507190523 | 8 | 247 | 1.6 | 4.8 | 0.00 | 0.00 | 0.00 | 44 | 1017.2 |
| 20260507184923 | 8 | 357 | 1.6 | 6.4 | 0.00 | 0.00 | 0.00 | 41 | 1017.1 |
| 20260507183013 | 9 | 139 | 1.6 | 6.4 | 0.00 | 0.00 | 0.00 | 49 | 1016.9 |
| 20260507181333 | 9 | 187 | 3.2 | 8.0 | 0.00 | 0.00 | 0.00 | 45 | 1016.9 |
| 20260507175538 | 10 | 168 | 3.2 | 8.0 | 0.00 | 0.00 | 0.00 | 48 | 1016.9 |
| 20260507173848 | 9 | 197 | 4.8 | 8.0 | 0.00 | 0.00 | 0.00 | 40 | 1016.9 |
| 20260507172225 | 9 | 198 | 1.6 | 6.4 | 0.00 | 0.00 | 0.00 | 1016.9 | |
| 20260507172218 | 9 | 198 | 1.6 | 6.4 | 0.00 | 0.00 | 0.00 | 47 | 1016.9 |
| 20260507170233 | 8 | 178 | 1.6 | 6.4 | 0.00 | 0.00 | 0.00 | 49 | 1016.7 |
| 20260507164638 | 8 | 198 | 4.8 | 12.9 | 0.00 | 0.00 | 0.00 | 49 | 1016.4 |
| 20260507164633 | 8 | 198 | 4.8 | 12.9 | 0.00 | 0.00 | 0.00 | 49 | 1016.4 |
| 20260507162813 | 8 | 194 | 6.4 | 12.9 | 0.00 | 0.00 | 0.00 | 47 | 1016.3 |
| 20260507161048 | 8 | 203 | 8.0 | 14.5 | 0.00 | 0.00 | 0.00 | 55 | 1016.3 |
| 20260507155416 | 9 | 182 | 4.8 | 12.9 | 0.00 | 0.00 | 0.00 | 45 | 1016.3 |
| 20260507155413 | 9 | 182 | 4.8 | 12.9 | 0.00 | 0.00 | 0.00 | 45 | 1016.3 |
| 20260507153743 | 8 | 185 | 4.8 | 8.0 | 0.00 | 0.00 | 0.00 | 49 | 1016.3 |
| 20260507152139 | 9 | 190 | 4.8 | 9.7 | 0.00 | 0.00 | 0.00 | 43 | 1016.3 |
| 20260507152133 | 9 | 190 | 4.8 | 9.7 | 0.00 | 0.00 | 0.00 | 43 | 1016.3 |
| 20260507150213 | 9 | 189 | 3.2 | 8.0 | 0.00 | 0.00 | 0.00 | 41 | 1016.3 |
| 20260507144243 | 9 | 197 | 6.4 | 11.3 | 0.00 | 0.00 | 0.00 | 51 | 1016.2 |
| 20260507142548 | 9 | 208 | 4.8 | 9.7 | 0.00 | 0.00 | 0.00 | 49 | 1016.1 |
| 20260507140639 | 10 | 201 | 11.3 | 14.5 | 0.00 | 0.00 | 0.00 | 41 | 1016.0 |
| 20260507140633 | 10 | 201 | 11.3 | 14.5 | 0.00 | 0.00 | 0.00 | 41 | 1016.0 |
| 20260507134708 | 11 | 166 | 3.2 | 8.0 | 0.00 | 0.00 | 0.00 | 32 | 1015.9 |
| 20260507132906 | 12 | 198 | 6.4 | 12.9 | 0.00 | 0.00 | 0.00 | 25 | 1015.9 |
| 20260507132900 | 12 | 198 | 6.4 | 12.9 | 0.00 | 0.00 | 0.00 | 25 | 1015.9 |
| 20260507131228 | 11 | 192 | 4.8 | 9.7 | 0.00 | 0.00 | 0.00 | 25 | 1015.9 |
| 20260507125428 | 10 | 158 | 3.2 | 9.7 | 0.00 | 0.00 | 0.00 | 35 | 1016.0 |
| 20260507123447 | 10 | 190 | 6.4 | 9.7 | 0.00 | 0.00 | 0.00 | 31 | 1015.9 |
| 20260507121451 | 12 | 195 | 4.8 | 11.3 | 0.00 | 0.00 | 0.00 | ||
| 20260507121448 | 12 | 195 | 4.8 | 11.3 | 0.00 | 0.00 | 0.00 | 28 | 1016.0 |